Preview of NWS' New Version of Forecast
This preview is not operational and should not be used for support decisions.

Regional Weather Roundup (RWR)

Issued by Philadelphia/Mt Holly (PHI)

                            
000
ASUS41 KPHI 241012
RWRPHI

REGIONAL WEATHER ROUNDUP
NATIONAL WEATHER SERVICE MOUNT HOLLY NJ
600 AM EDT FRI MAY 24 2019

NOTE:  "FAIR" INDICATES FEW OR NO CLOUDS BELOW 12,000 FEET WITH NO
SIGNIFICANT WEATHER AND/OR OBSTRUCTIONS TO VISIBILITY.

 * = STATION DOES NOT REPORT PRECIPITATION (E.G. RAIN, SNOW, ETC.) 
        OR FOG.

NJZ015>026-241100-
SOUTHERN NEW JERSEY
  
CITY           SKY/WX    TMP DP  RH WIND       PRES   REMARKS
POMONA         FAIR      70  63  78 W13G22    29.88R                  
WILDWOOD*      CLOUDY   N/A N/A N/A W9        29.91R                  
MILLVILLE      FAIR      70  63  78 W9        29.90R                  
WRIGHTSTOWN    FAIR      66  61  81 NW8       29.85R                  
MOUNT HOLLY    FAIR      67  61  81 W7        29.87R                  
TRENTON        FAIR      67  56  67 NW10G18   29.87R                  

$$
NJZ001>014-241100-
NORTHERN NEW JERSEY
  
CITY           SKY/WX    TMP DP  RH WIND       PRES   REMARKS
SUSSEX         FAIR      60  53  77 CALM      29.87R                  
ANDOVER*         N/A     58  54  86 CALM      29.88R                  
MORRISTOWN     FAIR      64  54  68 W5        29.85R                  
NEWARK         FAIR      67  54  63 W10       29.83R                  
TETERBORO      FAIR      65  56  72 NW7       29.82R                  
CALDWELL       FAIR      64  57  78 CALM      29.85R                  
SOMERVILLE     FAIR      66  50  56 NW6       29.84R                  
ALLAIRE*       FAIR      67  59  75 W15       29.86R                  
TOMS RIVER*    FAIR      65  64  97 W7        29.87R                  

$$
PAZ043-044-047-054-055-060>062-066>071-241100-
EASTERN PENNSYLVANIA
  
CITY           SKY/WX    TMP DP  RH WIND       PRES   REMARKS
PHILADELPHIA   FAIR      66  60  81 W10       29.90R                  
NORTH PHILA    FAIR      69  58  67 NW9       29.89R                  
BLUE BELL*     FAIR      65  57  74 W6        29.90R                  
DOYLESTOWN     FAIR      66  50  56 NW6       29.89R                  
QUAKERTOWN*    CLEAR     64  54  68 VRB5      29.90R                  
PERKASIE*      FAIR      64  54  68 W9G18     29.91R                  
POTTSTOWN      FAIR      63  57  81 CALM      29.92R                  
LANCASTER      FAIR      65  53  65 NW9       29.93R                  
COATESVILLE    FAIR      64  55  72 NW13      29.94R                  
WEST CHESTER   FAIR      63  59  88 W6        29.93R                  
READING        FAIR      64  54  69 W9        29.91R                  
ALLENTOWN      FAIR      68  48  48 NW18G24   29.89R                  
QN CITY/ALNTWN FAIR      66  50  55 W12G17    29.92R                  
MOUNT POCONO   FAIR      56  47  71 NW14      29.89R                  
LEHIGHTON      FAIR      63  46  55 W6        29.92R                  
WILKES BARRE   FAIR      61  47  59 W16G23    29.92R                  

$$
DEZALL-MDZ008-012-015-019-020-241100-
DELAWARE AND EASTERN MARYLAND
  
CITY           SKY/WX    TMP DP  RH WIND       PRES   REMARKS
WILMINGTON     FAIR      69  58  67 NW13      29.91R                  
DOVER          MOCLDY    71  66  84 W10       29.91R                  
CHESWOLD         N/A     70  66  88 W7        29.92R                  
GEORGETOWN     FAIR      72  71  97 W5        29.92R FOG              
EASTON         MOCLDY    73  68  83 W9        29.97R                  
STEVENSVILLE   MOCLDY    70  68  94 NW6       29.94R                  
ABERDEEN       PTCLDY    68  66  94 NW5       29.94                   
PATUXENT       FAIR      74  72  93 W13       29.93                   
OCEAN CITY     FAIR      73  70  90 W9        29.91R                  
WALLOPS ISLAND FAIR      76  72  87 SW10      29.92S                  
CAMBRIDGE      MOCLDY    72  70  94 NW5       29.93R                  
SALISBURY      FAIR      72  71  97 W7        29.92R                  

$$
PAZ001-021-NYZ056-072-MDZ011-DCZ001-241100-
OTHER NEARBY LOCATIONS
  
CITY           SKY/WX    TMP DP  RH WIND       PRES   REMARKS
HARRISBURG     FAIR      65  51  60 NW9       29.95R                  
STATE COLLEGE  CLEAR     59  46  63 NW7       30.02R                  
WILLIAMSPORT   FAIR      59  46  62 W9        29.96R                  
BINGHAMTON     MOCLDY    54  45  71 W12       29.91R                  
NEW YORK CITY  FAIR      67  56  67 NW9G17    29.85R                  
BALTIMORE      FAIR      71  64  78 NW5       29.94R                  
WASHINGTON DC  FAIR      73  65  75 NW7       29.96R                  

$$